This is the latest recevied weather packets stored in our database for station/object CE3SUR-16. If no packets are shown the sender has not sent any weather packets the latest 10 day(s).
| Time | Temp. | Humidity | Pressure | Rain* | Wind** | Luminosity | Snow |
|---|---|---|---|---|---|---|---|
| 1777727319 | 15.56° C | 99% | 957.1 hPa | - | - | - | - |
| 1777725519 | 15.56° C | 99% | 957.1 hPa | - | - | - | - |
| 1777723717 | 12.22° C | 99% | 957 hPa | - | - | - | - |
| 1777722014 | 11.67° C | 99% | 956.8 hPa | - | - | - | - |
| 1777721917 | 11.67° C | 99% | 956.8 hPa | - | - | - | - |
| 1777720202 | 11.67° C | 99% | 956.6 hPa | - | - | - | - |
| 1777720123 | 11.67° C | 99% | 956.6 hPa | - | - | - | - |
| 1777718319 | 11.67° C | 99% | 956.6 hPa | - | - | - | - |
| 1777716518 | 12.22° C | 99% | 956.5 hPa | - | - | - | - |
| 1777714720 | 12.22° C | 99% | 956.8 hPa | - | - | - | - |
| 1777712918 | 12.22° C | 99% | 957.2 hPa | - | - | - | - |
| 1777711121 | 11.67° C | 99% | 957.5 hPa | - | - | - | - |
| 1777709321 | 12.22° C | 99% | 957.7 hPa | - | - | - | - |
| 1777707521 | 12.22° C | 99% | 958 hPa | - | - | - | - |
| 1777705721 | 12.78° C | 99% | 958.3 hPa | - | - | - | - |
| 1777703921 | 12.78° C | 99% | 958.5 hPa | - | - | - | - |
| 1777702120 | 13.33° C | 99% | 958.9 hPa | - | - | - | - |
| 1777700316 | 13.33° C | 99% | 959 hPa | - | - | - | - |
| 1777698519 | 13.33° C | 99% | 959.1 hPa | - | - | - | - |
| 1777696719 | 13.33° C | 99% | 959.3 hPa | - | - | - | - |
| 1777694919 | 13.89° C | 99% | 959.7 hPa | - | - | - | - |
| 1777693118 | 13.89° C | 99% | 959.9 hPa | - | - | - | - |
| 1777691351 | 14.44° C | 99% | 960.1 hPa | - | - | - | - |
| 1777691318 | 14.44° C | 99% | 960.1 hPa | - | - | - | - |
| 1777689518 | 15° C | 99% | 960.2 hPa | - | - | - | - |
* Rain since midnight (hover to see other rain measurements)
** Current wind speed in m/s (hover to see current wind gust speed)